User: anonymous   Login
Location: Unspecified
(0.0000°N, 0.0000°E)
Time: 10:26:41
(UTC+00:00)
Language:

YUBILEINY - Orbit

View from above orbital plane
View from above orbital plane
View from above satellite
View from above satellite

Ground track
Ground track

The orbit data is extracted from the following two-line orbital elements,

1 32953U 08025A   20219.86000315  .00000037  00000-0  19437-3 0  9991
2 32953  82.5007 246.5547 0018086 305.9486  53.9922 12.43097492553898
Epoch (UTC): 06 August 2020 20:38:24
Eccentricity: 0.0018086
inclination: 82.5007°
perigee height: 1479 km
apogee height: 1508 km
right ascension of ascending node: 246.5547°
argument of perigee: 305.9486°
revolutions per day: 12.43097492
mean anomaly at epoch: 53.9922°
orbit number at epoch: 55389

The dashed part of the orbit path shows where the satellite is in the earth's shadow,  

DLR